Regional Weather Roundup
Issued by NWS Cleveland, OH

Home | Current Version | Previous Version | Graphics & Text | Print | Product List | Glossary On
Versions: 1 2 3 4 5 6 7 8 9 10 11 12 13 14 15 16 17 18 19 20 21 22 23 24 25 26 27 28 29 30 31 32 33 34 35 36 37 38 39 40 41 42 43 44 45 46 47 48 49 50
000
ASUS41 KCLE 232010
RWRCLE
OHIO REGIONAL WEATHER ROUNDUP
NATIONAL WEATHER SERVICE WILMINGTON, OH
300 PM EST SUN NOV 23 2014

NOTE: "FAIR" INDICATES FEW OR NO CLOUDS BELOW 12,000 FEET WITH NO
SIGNIFICANT WEATHER AND/OR OBSTRUCTIONS TO VISIBILITY.

OHZ001>008-015>018-024>027-034-035-043-044-232100-
   NORTHWEST OHIO

CITY           SKY/WX    TMP DP  RH WIND       PRES   REMARKS
DEFIANCE       CLOUDY    58  47  66 SE7       29.67F
FINDLAY        CLOUDY    58  44  60 SE12      29.70F
TOLEDO EXPRESS PTSUNNY   58  47  66 SE8       29.71F
TOLEDO METCALF PTSUNNY   58  45  62 SE13      29.73F
LIMA           CLOUDY    59  45  59 SE12      29.69F
$$

OHZ009>014-019>023-028>033-038-089-232100-
   NORTHEAST OHIO

CITY           SKY/WX    TMP DP  RH WIND       PRES   REMARKS
CLE-HOPKINS    PTSUNNY   56  41  57 SE10      29.83F
CLE-LAKEFRONT  PTSUNNY   57  41  55 SE12      29.80F
CUY CO. ARPT   CLOUDY    57  43  58 S14       29.87F
LORAIN-ELYRIA  PTSUNNY   56  42  59 SE17      29.79F
ASHTABULA      CLOUDY    53  40  61 SE10      29.88F
AKRON-CANTON   CLOUDY    59  43  55 SE10      29.83F
WOOSTER        PTSUNNY  N/A N/A N/A SE9       29.81F
MANSFIELD      PTSUNNY   57  41  55 E15       29.77F
YOUNGSTOWN     CLOUDY    58  41  53 SE13      29.87F
$$

OHZ042-051>053-060>062-070>072-077>081-232100-
  SOUTHWEST OHIO

CITY           SKY/WX    TMP DP  RH WIND       PRES   REMARKS
CINC-COVINGTON LGT RAIN  57  49  74 SE13      29.68F
CINC-LUNKEN    CLOUDY    58  47  66 SE15G22   29.70F
HAMILTON       LGT RAIN  60  50  69 SE10G20   29.69F
DAYTON         LGT RAIN  61  46  57 SE13      29.70F
WRIGHT-PAT AFB CLOUDY    61  43  50 SE13      29.70F
DAYTON GENERAL CLOUDY    59  48  67 SE12      29.68F
WILMINGTON     CLOUDY    59  42  53 SE9       29.71F
$$

OHZ036-037-039>041-045>050-054>059-063>069-073>076-082>088-232100-
  CENTRAL AND SOUTHEAST OHIO

CITY           SKY/WX    TMP DP  RH WIND       PRES   REMARKS
COLUMBUS       CLOUDY    62  41  46 SE14      29.74F
OSU AIRPORT    CLOUDY    63  41  44 SE14      29.73F
BOLTON FIELD   NOT AVBL
RICKENBACK AFB CLOUDY    63  43  47 SE15      29.73F
NEWARK         CLOUDY    63  39  41 SE10G20   29.77F
MARION         CLOUDY    60  43  53 SE12      29.74F
LANCASTER      CLOUDY    63  40  42 SE13      29.76F
ZANESVILLE     CLOUDY    61  38  42 SE12      29.81F
NEW PHILLY     PTSUNNY   64  44  48 SE10      29.83F
$$


USA.gov is the U.S. government's official web portal to all federal, state and local government web resources and services.